Location: McFarlands Corners
(41.4117°N, 81.3382°W)
Time: 03:48:39
(UTC+00:00)

Explorer 7 - Pass Details

Date: 08 November 2024
Orbit: 456 x 598 km, 50.3° (Epoch: 03 December)

Event Time Altitude Azimuth Distance (km) Brightness Sun altitude
Exits shadow 10:31:22 28° 226° (SW) 1,027 7.8 -18.0°
Maximum altitude 10:33:26 77° 145° (SE) 565 6.9 -17.6°
Drops below altitude 10° 10:37:42 10° 59° (ENE) 1,865 10.3 -16.8°
Sets 10:40:01 0° 58° (ENE) 2,788 11.2 -16.4°
